Schneifelwetter: Wetterstation Hallschlag, 537 m . NN
Wetterdaten: Samstag, 27.03.2010
Datum Zeit Temp. A. Feuchte A. Luftdruck Regen Wind Richtung Richtung Sonnenschein Helligkeit T Regen Taupunkt Windchill
27.03.2010 00:00 4,7 C 95 % 1006 hPa 0,0 l/m 25,6 km/h (4 Bft) W-SW22.5 245 0 min 0 lux 0,00 min 4,0 C -5,5 C
27.03.2010 00:15 4,8 C 95 % 1006 hPa 0,0 l/m 28,1 km/h (4 Bft) W-SW45 240 0 min 0 lux 0,00 min 4,1 C -6,1 C
27.03.2010 00:30 4,7 C 95 % 1006 hPa 0,0 l/m 32,5 km/h (5 Bft) W-SW45 240 0 min 0 lux 0,00 min 4,0 C -7,4 C
27.03.2010 00:46 4,7 C 95 % 1006 hPa 0,0 l/m 32,9 km/h (5 Bft) SW45 230 0 min 0 lux 0,00 min 4,0 C -7,5 C
27.03.2010 01:01 4,7 C 94 % 1005 hPa 0,0 l/m 27,3 km/h (4 Bft) SW45 235 0 min 0 lux 0,00 min 3,8 C -6,1 C
27.03.2010 01:16 4,6 C 94 % 1005 hPa 0,0 l/m 24,0 km/h (4 Bft) W-SW45 240 0 min 0 lux 0,00 min 3,7 C -5,2 C
27.03.2010 01:31 4,6 C 94 % 1006 hPa 0,0 l/m 22,8 km/h (4 Bft) SW45 230 0 min 0 lux 0,00 min 3,7 C -4,7 C
27.03.2010 01:46 4,6 C 95 % 1006 hPa 0,0 l/m 21,3 km/h (4 Bft) W-SW45 250 0 min 0 lux 0,00 min 3,9 C -4,2 C
27.03.2010 02:01 4,5 C 95 % 1006 hPa 0,0 l/m 20,6 km/h (4 Bft) SW45 230 0 min 0 lux 0,00 min 3,8 C -4,1 C
27.03.2010 02:16 4,5 C 95 % 1005 hPa 0,0 l/m 24,6 km/h (4 Bft) SW22.5 235 0 min 0 lux 0,00 min 3,8 C -5,5 C
27.03.2010 02:31 4,5 C 95 % 1005 hPa 0,0 l/m 24,5 km/h (4 Bft) SW45 225 0 min 0 lux 0,00 min 3,8 C -5,5 C
27.03.2010 02:46 4,5 C 95 % 1005 hPa 0,0 l/m 26,3 km/h (4 Bft) W-SW45 240 0 min 0 lux 0,00 min 3,8 C -6,0 C
27.03.2010 03:01 4,4 C 96 % 1005 hPa 0,0 l/m 33,5 km/h (5 Bft) SW45 235 0 min 0 lux 0,00 min 3,8 C -8,1 C
27.03.2010 03:16 4,4 C 96 % 1005 hPa 0,0 l/m 27,2 km/h (4 Bft) SW22.5 230 0 min 0 lux 0,00 min 3,8 C -6,4 C
27.03.2010 03:31 4,4 C 96 % 1005 hPa 0,0 l/m 26,5 km/h (4 Bft) SW45 225 0 min 0 lux 0,00 min 3,8 C -6,2 C
27.03.2010 03:46 4,3 C 96 % 1005 hPa 0,0 l/m 29,5 km/h (5 Bft) W-SW45 240 0 min 0 lux 0,00 min 3,7 C -7,2 C
27.03.2010 04:01 4,3 C 96 % 1005 hPa 0,0 l/m 27,9 km/h (4 Bft) W-SW45 245 0 min 0 lux 0,00 min 3,7 C -6,8 C
27.03.2010 04:16 4,3 C 96 % 1005 hPa 0,0 l/m 33,2 km/h (5 Bft) SW45 225 0 min 0 lux 0,00 min 3,7 C -8,2 C
27.03.2010 04:31 4,3 C 96 % 1005 hPa 0,0 l/m 21,6 km/h (4 Bft) W-SW22.5 250 0 min 0 lux 0,00 min 3,7 C -4,7 C
27.03.2010 04:46 4,2 C 96 % 1005 hPa 0,0 l/m 20,6 km/h (4 Bft) SW22.5 215 0 min 0 lux 0,00 min 3,6 C -4,4 C
27.03.2010 05:01 4,2 C 96 % 1005 hPa 0,0 l/m 21,5 km/h (4 Bft) SW45 220 0 min 0 lux 0,00 min 3,6 C -4,8 C
27.03.2010 05:16 4,1 C 96 % 1005 hPa 0,0 l/m 21,3 km/h (4 Bft) W-SW22.5 240 0 min 0 lux 0,00 min 3,5 C -4,9 C
27.03.2010 05:31 4,1 C 96 % 1005 hPa 0,0 l/m 20,0 km/h (4 Bft) SW45 225 0 min 0 lux 0,00 min 3,5 C -4,3 C
27.03.2010 05:46 4,0 C 95 % 1005 hPa 0,0 l/m 23,1 km/h (4 Bft) W-SW45 240 0 min 0 lux 0,00 min 3,3 C -5,6 C
27.03.2010 06:01 3,9 C 95 % 1005 hPa 0,0 l/m 24,1 km/h (4 Bft) SW45 225 0 min 0 lux 0,00 min 3,2 C -6,1 C
27.03.2010 06:16 4,0 C 95 % 1005 hPa 0,0 l/m 20,6 km/h (4 Bft) SW45 225 0 min 61 lux 0,00 min 3,3 C -4,7 C
27.03.2010 06:31 3,9 C 95 % 1005 hPa 0,0 l/m 36,2 km/h (5 Bft) SW45 225 0 min 289 lux 0,00 min 3,2 C -9,4 C
27.03.2010 06:46 3,9 C 95 % 1005 hPa 0,0 l/m 25,4 km/h (4 Bft) W-SW45 240 0 min 486 lux 0,00 min 3,2 C -6,6 C
27.03.2010 07:01 3,9 C 95 % 1004 hPa 0,0 l/m 20,5 km/h (4 Bft) W-SW22.5 250 0 min 620 lux 0,00 min 3,2 C -4,8 C
27.03.2010 07:16 3,9 C 95 % 1005 hPa 0,0 l/m 20,6 km/h (4 Bft) W-SW22.5 245 0 min 1,43 klux 0,00 min 3,2 C -4,8 C
27.03.2010 07:31 3,9 C 95 % 1005 hPa 0,0 l/m 20,6 km/h (4 Bft) SW45 230 0 min 2,62 klux 0,00 min 3,2 C -4,8 C
27.03.2010 07:46 4,0 C 95 % 1005 hPa 0,0 l/m 17,6 km/h (3 Bft) W-SW45 240 0 min 3,77 klux 0,00 min 3,3 C -3,4 C
27.03.2010 08:01 4,1 C 95 % 1005 hPa 0,0 l/m 15,5 km/h (3 Bft) SW45 215 0 min 4,17 klux 0,00 min 3,4 C -2,3 C
27.03.2010 08:16 4,1 C 95 % 1005 hPa 0,0 l/m 18,1 km/h (3 Bft) W-SW45 240 0 min 3,74 klux 0,00 min 3,4 C -3,5 C
27.03.2010 08:31 4,3 C 95 % 1005 hPa 0,0 l/m 20,8 km/h (4 Bft) S-SW45 195 0 min 16,7 klux 0,00 min 3,6 C -4,4 C
27.03.2010 08:46 4,7 C 94 % 1005 hPa 0,0 l/m 18,8 km/h (3 Bft) S-SW67.5 210 0 min 18,1 klux 0,00 min 3,8 C -3,1 C
27.03.2010 09:01 4,7 C 93 % 1004 hPa 0,0 l/m 19,0 km/h (3 Bft) SW45 220 0 min 10,4 klux 0,00 min 3,7 C -3,1 C
27.03.2010 09:16 4,9 C 93 % 1004 hPa 0,0 l/m 21,5 km/h (4 Bft) SW45 220 0 min 14,5 klux 0,00 min 3,9 C -3,9 C
27.03.2010 09:31 5,3 C 92 % 1004 hPa 0,0 l/m 28,1 km/h (4 Bft) S-SW45 205 0 min 17,6 klux 0,00 min 4,1 C -5,4 C
27.03.2010 09:46 5,4 C 91 % 1004 hPa 0,0 l/m 31,8 km/h (5 Bft) SW22.5 220 0 min 16,6 klux 0,00 min 4,1 C -6,3 C
27.03.2010 10:01 5,9 C 90 % 1004 hPa 0,0 l/m 20,8 km/h (4 Bft) SW22.5 220 0 min 33,5 klux 0,00 min 4,4 C -2,3 C
27.03.2010 10:16 5,8 C 89 % 1005 hPa 0,0 l/m 23,5 km/h (4 Bft) S22.5 185 0 min 21,0 klux 0,00 min 4,1 C -3,4 C
27.03.2010 10:31 6,2 C 88 % 1004 hPa 0,0 l/m 27,6 km/h (4 Bft) W-SW45 240 0 min 21,1 klux 0,00 min 4,4 C -4,1 C
27.03.2010 10:46 6,1 C 87 % 1004 hPa 0,0 l/m 21,5 km/h (4 Bft) S-SW45 205 0 min 20,7 klux 0,00 min 4,1 C -2,3 C
27.03.2010 11:01 6,7 C 88 % 1004 hPa 0,3 l/m 26,6 km/h (4 Bft) W-SW45 240 0 min 35,5 klux 15,00 min 4,9 C -3,1 C
27.03.2010 11:16 7,0 C 85 % 1004 hPa 0,0 l/m 29,1 km/h (5 Bft) W-SW45 250 0 min 27,9 klux 0,00 min 4,7 C -3,3 C
27.03.2010 11:31 7,0 C 84 % 1004 hPa 0,0 l/m 25,3 km/h (4 Bft) SW45 215 0 min 23,2 klux 0,00 min 4,5 C -2,3 C
27.03.2010 11:46 7,0 C 84 % 1004 hPa 0,0 l/m 17,6 km/h (3 Bft) S45 190 0 min 22,4 klux 0,00 min 4,5 C 0,3 C
27.03.2010 12:01 7,5 C 83 % 1004 hPa 0,0 l/m 18,9 km/h (3 Bft) SW45 230 0 min 37,9 klux 0,00 min 4,8 C 0,5 C
27.03.2010 12:16 7,0 C 82 % 1004 hPa 0,0 l/m 26,6 km/h (4 Bft) W-SW45 250 0 min 13,4 klux 0,00 min 4,1 C -2,7 C
27.03.2010 12:31 6,3 C 86 % 1004 hPa 0,0 l/m 22,6 km/h (4 Bft) S-SW45 200 0 min 17,5 klux 0,00 min 4,1 C -2,4 C
27.03.2010 12:46 6,4 C 87 % 1004 hPa 0,0 l/m 24,3 km/h (4 Bft) S22.5 185 15 min 56,7 klux 0,00 min 4,4 C -2,8 C
27.03.2010 13:01 7,7 C 83 % 1004 hPa 0,0 l/m 23,8 km/h (4 Bft) S45 190 15 min 89,0 klux 0,00 min 5,0 C -0,9 C
27.03.2010 13:16 7,2 C 81 % 1004 hPa 0,0 l/m 22,0 km/h (4 Bft) S-SW45 200 0 min 21,0 klux 0,00 min 4,2 C -1,0 C
27.03.2010 13:31 7,2 C 82 % 1004 hPa 0,0 l/m 18,7 km/h (3 Bft) S-SW45 195 0 min 26,9 klux 0,00 min 4,3 C 0,2 C
27.03.2010 13:46 7,3 C 81 % 1004 hPa 0,0 l/m 16,8 km/h (3 Bft) S-SW45 195 0 min 25,5 klux 0,00 min 4,3 C 1,1 C
27.03.2010 14:01 7,9 C 80 % 1004 hPa 0,0 l/m 22,3 km/h (4 Bft) SW67.5 225 0 min 37,8 klux 0,00 min 4,7 C -0,2 C
27.03.2010 14:16 7,8 C 80 % 1004 hPa 0,0 l/m 17,1 km/h (3 Bft) S45 190 0 min 25,1 klux 0,00 min 4,6 C 1,6 C
27.03.2010 14:31 7,3 C 80 % 1004 hPa 0,0 l/m 19,8 km/h (3 Bft) W-SW22.5 240 0 min 19,5 klux 0,00 min 4,1 C -0,1 C
27.03.2010 14:46 7,2 C 81 % 1004 hPa 0,0 l/m 21,3 km/h (4 Bft) SW45 230 0 min 15,3 klux 0,00 min 4,2 C -0,8 C
27.03.2010 15:01 7,0 C 82 % 1004 hPa 0,0 l/m 21,3 km/h (4 Bft) W-SW22.5 255 0 min 13,8 klux 0,00 min 4,1 C -1,1 C
27.03.2010 15:16 6,7 C 82 % 1004 hPa 0,0 l/m 19,1 km/h (3 Bft) W-SW22.5 240 0 min 11,3 klux 0,00 min 3,8 C -0,6 C
27.03.2010 15:31 6,6 C 82 % 1005 hPa 0,0 l/m 16,9 km/h (3 Bft) W-SW45 240 0 min 9,7 klux 0,00 min 3,8 C 0,1 C
27.03.2010 15:46 6,4 C 83 % 1005 hPa 0,0 l/m 16,6 km/h (3 Bft) SW45 235 0 min 7,80 klux 0,00 min 3,7 C 0,0 C
27.03.2010 16:01 6,4 C 83 % 1005 hPa 0,0 l/m 18,0 km/h (3 Bft) W-SW22.5 250 0 min 9,5 klux 0,00 min 3,7 C -0,6 C
27.03.2010 16:16 6,5 C 83 % 1005 hPa 0,0 l/m 19,9 km/h (4 Bft) W-SW22.5 250 0 min 8,50 klux 0,00 min 3,8 C -1,2 C
27.03.2010 16:31 6,6 C 84 % 1005 hPa 0,0 l/m 14,8 km/h (3 Bft) W-SW22.5 250 0 min 8,93 klux 0,00 min 4,1 C 1,1 C
27.03.2010 16:46 6,7 C 84 % 1005 hPa 0,0 l/m 14,9 km/h (3 Bft) W-SW22.5 250 0 min 15,0 klux 0,00 min 4,2 C 1,2 C
27.03.2010 17:01 7,1 C 84 % 1005 hPa 0,0 l/m 17,3 km/h (3 Bft) W-SW22.5 250 0 min 14,2 klux 0,00 min 4,6 C 0,6 C
27.03.2010 17:16 7,1 C 83 % 1005 hPa 0,0 l/m 15,4 km/h (3 Bft) W-SW22.5 250 0 min 7,81 klux 0,00 min 4,4 C 1,4 C
27.03.2010 17:31 7,1 C 83 % 1005 hPa 0,0 l/m 12,5 km/h (3 Bft) W-SW22.5 250 0 min 7,22 klux 0,00 min 4,4 C 2,9 C
27.03.2010 17:46 7,0 C 83 % 1005 hPa 0,0 l/m 12,3 km/h (3 Bft) W-SW 250 0 min 6,37 klux 0,00 min 4,3 C 2,9 C
27.03.2010 18:01 6,9 C 84 % 1005 hPa 0,0 l/m 12,2 km/h (2 Bft) W-SW 255 0 min 7,50 klux 0,00 min 4,4 C 2,8 C
27.03.2010 18:16 6,8 C 84 % 1005 hPa 0,0 l/m 8,8 km/h (2 Bft) W-SW 250 0 min 5,24 klux 0,00 min 4,3 C 4,9 C
27.03.2010 18:31 6,4 C 84 % 1006 hPa 0,0 l/m 11,8 km/h (2 Bft) W-SW22.5 255 0 min 7,86 klux 0,00 min 3,9 C 2,5 C
27.03.2010 18:46 5,7 C 84 % 1006 hPa 0,0 l/m 11,3 km/h (2 Bft) W-SW22.5 240 0 min 7,10 klux 0,00 min 3,2 C 2,0 C
27.03.2010 19:01 4,9 C 84 % 1006 hPa 0,0 l/m 13,3 km/h (3 Bft) W-SW22.5 250 0 min 1,39 klux 0,00 min 2,4 C -0,1 C
27.03.2010 19:16 4,2 C 85 % 1006 hPa 0,0 l/m 3,3 km/h (1 Bft) SW 235 0 min 476 lux 0,00 min 1,9 C 4,2 C
27.03.2010 19:30 3,4 C 85 % 1006 hPa 0,0 l/m 7,7 km/h (2 Bft) SW 235 0 min 55 lux 0,00 min 1,1 C 2,2 C
27.03.2010 19:45 2,8 C 86 % 1006 hPa 0,0 l/m 8,3 km/h (2 Bft) W-SW 250 0 min 6 lux 0,00 min 0,7 C 1,0 C
27.03.2010 20:00 2,3 C 88 % 1006 hPa 0,0 l/m 7,4 km/h (2 Bft) W-SW22.5 250 0 min 0 lux 0,00 min 0,5 C 1,3 C
27.03.2010 20:16 2,1 C 89 % 1006 hPa 0,0 l/m 7,8 km/h (2 Bft) W-SW22.5 255 0 min 0 lux 0,00 min 0,5 C 0,7 C
27.03.2010 20:31 2,2 C 91 % 1007 hPa 0,0 l/m 10,3 km/h (2 Bft) W22.5 265 0 min 0 lux 0,00 min 0,9 C -1,3 C
27.03.2010 20:46 2,2 C 91 % 1007 hPa 0,0 l/m 10,8 km/h (2 Bft) W22.5 260 0 min 0 lux 0,00 min 0,9 C -1,6 C
27.03.2010 21:01 2,1 C 91 % 1007 hPa 0,0 l/m 10,0 km/h (2 Bft) W-SW 250 0 min 0 lux 0,00 min 0,8 C -1,1 C
27.03.2010 21:16 1,9 C 92 % 1007 hPa 0,0 l/m 8,5 km/h (2 Bft) W-SW 250 0 min 0 lux 0,00 min 0,7 C -0,1 C
27.03.2010 21:31 2,1 C 93 % 1008 hPa 0,0 l/m 10,3 km/h (2 Bft) W-SW 250 0 min 0 lux 0,00 min 1,1 C -1,4 C
27.03.2010 21:46 2,5 C 94 % 1008 hPa 0,0 l/m 14,8 km/h (3 Bft) W-SW45 250 0 min 0 lux 0,00 min 1,6 C -3,8 C
27.03.2010 22:01 2,8 C 94 % 1008 hPa 0,0 l/m 12,7 km/h (3 Bft) W-SW22.5 250 0 min 0 lux 0,00 min 1,9 C -2,2 C
27.03.2010 22:16 3,0 C 95 % 1008 hPa 0,0 l/m 10,3 km/h (2 Bft) W-SW 250 0 min 0 lux 0,00 min 2,3 C -0,4 C
27.03.2010 22:31 3,4 C 96 % 1008 hPa 0,0 l/m 14,6 km/h (3 Bft) SW45 225 0 min 0 lux 0,00 min 2,8 C -2,6 C
27.03.2010 22:46 3,7 C 96 % 1008 hPa 0,0 l/m 15,6 km/h (3 Bft) W-SW22.5 245 0 min 0 lux 0,00 min 3,1 C -2,8 C
27.03.2010 23:01 3,8 C 96 % 1008 hPa 0,0 l/m 15,7 km/h (3 Bft) W-SW22.5 245 0 min 0 lux 0,00 min 3,2 C -2,7 C
27.03.2010 23:16 3,9 C 95 % 1008 hPa 0,0 l/m 13,2 km/h (3 Bft) W-SW22.5 250 0 min 0 lux 0,00 min 3,2 C -1,2 C
27.03.2010 23:31 3,9 C 95 % 1008 hPa 0,0 l/m 14,6 km/h (3 Bft) W-SW22.5 250 0 min 0 lux 0,00 min 3,2 C -2,0 C
27.03.2010 23:46 3,9 C 95 % 1008 hPa 0,0 l/m 15,8 km/h (3 Bft) W-SW22.5 250 0 min 0 lux 0,00 min 3,2 C -2,7 C
_ Min-Zeit 21:16 14:01 07:01 - 19:16 - - - - - 20:16 06:31
Minimum _ 1,9 C 80 % 1004 hPa - 3,3 km/h (1 Bft) - - - - - 0,5 C -9,4 C
_ Max-Zeit 14:01 03:01 21:31 11:01 06:31 - - 12:46 13:01 11:01 13:01 18:16
Maximum _ 7,9 C 96 % 1008 hPa 0,3 l/m 36,2 km/h
SW (5 Bft)
- - 15 min 89,0 klux 15,00 min 5,0 C 4,9 C
Durchschnitt _ 5,0 C 90 % 1005 hPa #0,3 l/m 19,7 km/h (3 Bft) W-SW - #30 min. 8,87 klux #15 min. 3,5 C -2,5 C